Time,TemperatureF,DewpointF,PressureIn,WindDirection,WindDirectionDegrees,WindSpeedMPH,WindSpeedGustMPH,Humidity,HourlyPrecipIn,Conditions,Clouds,dailyrainin,SolarRadiationWatts/m^2,SoftwareType,DateUTC
2013-07-28 00:01:00,78.1,74.9,29.97,SSE,159,1.0,2.0,90,0.00,,CLR,0.00,0.00,VWS V14.01,2013-07-28 04:01:00,
2013-07-28 00:02:00,78.1,74.9,29.97,SSE,159,0.0,2.0,90,0.00,,CLR,0.00,0.00,VWS V14.01,2013-07-28 04:02:00,
2013-07-28 00:07:00,78.1,74.9,29.97,SSE,159,0.0,1.0,90,0.00,,CLR,0.00,0.00,VWS V14.01,2013-07-28 04:07:00,
2013-07-28 00:12:00,78.0,74.8,29.96,SSE,159,0.0,1.0,90,0.00,,CLR,0.00,0.00,VWS V14.01,2013-07-28 04:12:00,
2013-07-28 00:17:00,78.0,74.8,29.96,SSE,159,2.0,2.0,90,0.00,,CLR,0.00,0.00,VWS V14.01,2013-07-28 04:17:00,
2013-07-28 00:22:00,78.0,74.8,29.96,SSE,159,0.0,1.0,90,0.00,,CLR,0.00,0.00,VWS V14.01,2013-07-28 04:22:00,
2013-07-28 00:27:00,78.0,74.8,29.97,SSE,159,0.0,2.0,90,0.00,,CLR,0.00,0.00,VWS V14.01,2013-07-28 04:27:00,
2013-07-28 00:32:00,78.0,74.8,29.97,SSE,159,0.0,2.0,90,0.00,,CLR,0.00,0.00,VWS V14.01,2013-07-28 04:32:00,
2013-07-28 00:37:00,78.0,74.8,29.97,SSE,159,0.0,1.0,90,0.00,,CLR,0.00,0.00,VWS V14.01,2013-07-28 04:37:00,
2013-07-28 00:42:00,78.0,74.8,29.97,SSE,159,0.0,1.0,90,0.00,,CLR,0.00,0.00,VWS V14.01,2013-07-28 04:42:00,
2013-07-28 00:47:00,78.0,74.8,29.97,SSE,159,0.0,1.0,90,0.00,,CLR,0.00,0.00,VWS V14.01,2013-07-28 04:47:00,
2013-07-28 00:52:00,78.0,74.8,29.96,SSE,159,0.0,0.0,90,0.00,,CLR,0.00,0.00,VWS V14.01,2013-07-28 04:52:00,
2013-07-28 00:57:00,77.9,74.7,29.96,SSE,159,0.0,1.0,90,0.00,,CLR,0.00,0.00,VWS V14.01,2013-07-28 04:57:00,
2013-07-28 01:02:00,77.9,75.1,29.96,SSE,159,0.0,1.0,91,0.00,,CLR,0.00,0.00,VWS V14.01,2013-07-28 05:02:00,
2013-07-28 01:07:00,77.9,75.1,29.96,SSE,159,0.0,0.0,91,0.00,,CLR,0.00,0.00,VWS V14.01,2013-07-28 05:07:00,
2013-07-28 01:12:00,77.9,75.1,29.95,SSE,159,0.0,0.0,91,0.00,,CLR,0.00,0.00,VWS V14.01,2013-07-28 05:12:00,
2013-07-28 01:17:00,78.0,75.2,29.95,SSE,159,0.0,1.0,91,0.00,,CLR,0.00,0.00,VWS V14.01,2013-07-28 05:17:00,
2013-07-28 01:22:00,78.0,75.2,29.95,SSE,159,1.0,2.0,91,0.00,,CLR,0.00,0.00,VWS V14.01,2013-07-28 05:22:00,
2013-07-28 01:27:00,78.0,75.2,29.96,SSE,159,0.0,1.0,91,0.00,,CLR,0.00,0.00,VWS V14.01,2013-07-28 05:27:00,
2013-07-28 01:32:00,78.0,75.2,29.95,SSE,159,0.0,2.0,91,0.00,,CLR,0.00,0.00,VWS V14.01,2013-07-28 05:32:00,
2013-07-28 01:37:00,78.1,75.3,29.95,SSE,159,1.0,2.0,91,0.00,,CLR,0.00,0.00,VWS V14.01,2013-07-28 05:37:00,
2013-07-28 01:42:00,78.1,75.3,29.94,SSE,159,1.0,1.0,91,0.00,,CLR,0.00,0.00,VWS V14.01,2013-07-28 05:42:00,
2013-07-28 01:47:00,78.2,75.4,29.94,SSE,159,0.0,0.0,91,0.00,,CLR,0.00,0.00,VWS V14.01,2013-07-28 05:47:00,
2013-07-28 01:52:00,78.2,75.4,29.94,SSE,159,0.0,2.0,91,0.00,,CLR,0.00,0.00,VWS V14.01,2013-07-28 05:52:00,
2013-07-28 01:57:00,78.2,75.4,29.94,SSE,159,0.0,1.0,91,0.00,,CLR,0.00,0.00,VWS V14.01,2013-07-28 05:57:00,
2013-07-28 02:02:00,78.2,75.4,29.94,SSE,159,0.0,2.0,91,0.00,,CLR,0.00,0.00,VWS V14.01,2013-07-28 06:02:00,
2013-07-28 02:07:00,78.2,75.4,29.94,SSE,159,0.0,2.0,91,0.00,,CLR,0.00,0.00,VWS V14.01,2013-07-28 06:07:00,
2013-07-28 02:12:00,78.2,75.4,29.94,SSE,159,0.0,2.0,91,0.00,,CLR,0.00,0.00,VWS V14.01,2013-07-28 06:12:00,
2013-07-28 02:17:00,78.1,75.3,29.93,SSE,159,0.0,0.0,91,0.00,,CLR,0.00,0.00,VWS V14.01,2013-07-28 06:17:00,
2013-07-28 02:22:00,78.1,75.3,29.93,SSE,159,0.0,0.0,91,0.00,,CLR,0.00,0.00,VWS V14.01,2013-07-28 06:22:00,
2013-07-28 02:27:00,78.0,75.2,29.93,SSE,159,0.0,0.0,91,0.00,,CLR,0.00,0.00,VWS V14.01,2013-07-28 06:27:00,
2013-07-28 02:32:00,78.0,75.2,29.93,SSE,159,0.0,0.0,91,0.00,,CLR,0.00,0.00,VWS V14.01,2013-07-28 06:32:00,
2013-07-28 02:37:00,77.9,75.1,29.93,SSE,159,0.0,0.0,91,0.00,,CLR,0.00,0.00,VWS V14.01,2013-07-28 06:37:00,
2013-07-28 02:42:00,77.9,75.1,29.93,SSE,159,2.0,2.0,91,0.00,,CLR,0.00,0.00,VWS V14.01,2013-07-28 06:42:00,
2013-07-28 02:47:00,77.9,75.4,29.93,SSE,159,1.0,1.0,92,0.00,,CLR,0.00,0.00,VWS V14.01,2013-07-28 06:47:00,
2013-07-28 02:52:00,77.9,75.4,29.92,SSE,164,3.0,5.0,92,0.00,,CLR,0.00,0.00,VWS V14.01,2013-07-28 06:52:00,
2013-07-28 02:57:00,77.8,75.3,29.93,SSE,167,1.0,4.0,92,0.00,,CLR,0.00,0.00,VWS V14.01,2013-07-28 06:57:00,
2013-07-28 03:02:00,77.8,75.3,29.93,SSE,167,1.0,4.0,92,0.00,,CLR,0.00,0.00,VWS V14.01,2013-07-28 07:02:00,
2013-07-28 03:07:00,77.8,75.3,29.93,SSE,167,0.0,2.0,92,0.00,,CLR,0.00,0.00,VWS V14.01,2013-07-28 07:07:00,
2013-07-28 03:12:00,77.7,75.2,29.93,SSE,167,2.0,3.0,92,0.00,,CLR,0.00,0.00,VWS V14.01,2013-07-28 07:12:00,
2013-07-28 03:17:00,77.6,75.1,29.93,SSE,167,1.0,2.0,92,0.00,,CLR,0.00,0.00,VWS V14.01,2013-07-28 07:17:00,
2013-07-28 03:22:00,77.6,75.1,29.93,South,170,2.0,2.0,92,0.00,,CLR,0.00,0.00,VWS V14.01,2013-07-28 07:22:00,
2013-07-28 03:27:00,77.6,75.1,29.93,SSW,196,1.0,3.0,92,0.00,,CLR,0.00,0.00,VWS V14.01,2013-07-28 07:27:00,
2013-07-28 03:32:00,77.6,75.1,29.94,SSW,196,0.0,1.0,92,0.00,,CLR,0.00,0.00,VWS V14.01,2013-07-28 07:32:00,
2013-07-28 03:37:00,77.5,75.0,29.93,SSW,195,0.0,0.0,92,0.00,,CLR,0.00,0.00,VWS V14.01,2013-07-28 07:37:00,
2013-07-28 03:42:00,77.5,75.0,29.93,SSW,196,0.0,1.0,92,0.00,,CLR,0.00,0.00,VWS V14.01,2013-07-28 07:42:00,
2013-07-28 03:47:00,77.4,74.9,29.93,SSW,196,1.0,1.0,92,0.00,,CLR,0.00,0.00,VWS V14.01,2013-07-28 07:47:00,
2013-07-28 03:52:00,77.3,74.8,29.93,SSW,196,0.0,1.0,92,0.00,,CLR,0.00,0.00,VWS V14.01,2013-07-28 07:52:00,
2013-07-28 03:57:00,77.3,74.8,29.93,SSW,195,0.0,0.0,92,0.00,,CLR,0.00,0.00,VWS V14.01,2013-07-28 07:57:00,
2013-07-28 04:02:00,77.2,74.7,29.93,SSW,196,0.0,1.0,92,0.00,,CLR,0.00,0.00,VWS V14.01,2013-07-28 08:02:00,
2013-07-28 04:07:00,77.3,74.5,29.93,SW,232,3.0,5.0,91,0.00,,CLR,0.00,0.00,VWS V14.01,2013-07-28 08:07:00,
2013-07-28 04:12:00,77.2,74.4,29.93,West,261,0.0,1.0,91,0.00,,CLR,0.00,0.00,VWS V14.01,2013-07-28 08:12:00,
2013-07-28 04:17:00,77.1,74.3,29.93,NNW,336,4.0,5.0,91,0.00,,CLR,0.00,0.00,VWS V14.01,2013-07-28 08:17:00,
2013-07-28 04:22:00,76.8,74.0,29.93,NNW,337,3.0,5.0,91,0.00,,CLR,0.00,0.00,VWS V14.01,2013-07-28 08:22:00,
2013-07-28 04:27:00,76.6,73.8,29.94,North,350,3.0,3.0,91,0.00,,CLR,0.00,0.00,VWS V14.01,2013-07-28 08:27:00,
2013-07-28 04:32:00,76.6,73.4,29.94,North,351,5.0,5.0,90,0.00,,CLR,0.00,0.00,VWS V14.01,2013-07-28 08:32:00,
2013-07-28 04:37:00,76.8,73.7,29.93,North,355,4.0,5.0,90,0.00,,CLR,0.00,0.00,VWS V14.01,2013-07-28 08:37:00,
2013-07-28 04:42:00,76.9,73.8,29.93,North,355,0.0,1.0,90,0.00,,CLR,0.00,0.00,VWS V14.01,2013-07-28 08:42:00,
2013-07-28 04:47:00,76.8,73.7,29.93,North,355,2.0,2.0,90,0.00,,CLR,0.00,0.00,VWS V14.01,2013-07-28 08:47:00,
2013-07-28 04:52:00,76.7,73.6,29.93,North,355,0.0,1.0,90,0.00,,CLR,0.00,0.00,VWS V14.01,2013-07-28 08:52:00,
2013-07-28 04:57:00,76.5,73.3,29.93,North,355,0.0,1.0,90,0.00,,CLR,0.00,0.00,VWS V14.01,2013-07-28 08:57:00,
2013-07-28 05:02:00,76.4,73.2,29.93,North,355,0.0,1.0,90,0.00,,CLR,0.00,0.00,VWS V14.01,2013-07-28 09:02:00,
2013-07-28 05:07:00,76.2,72.7,29.93,North,355,0.0,0.0,89,0.00,,CLR,0.00,0.00,VWS V14.01,2013-07-28 09:07:00,
2013-07-28 05:12:00,76.2,72.7,29.93,North,355,0.0,0.0,89,0.00,,CLR,0.00,0.00,VWS V14.01,2013-07-28 09:12:00,
2013-07-28 05:17:00,76.3,72.8,29.92,North,355,0.0,0.0,89,0.00,,CLR,0.00,0.00,VWS V14.01,2013-07-28 09:17:00,
2013-07-28 05:22:00,76.3,72.8,29.92,North,355,0.0,0.0,89,0.00,,CLR,0.00,0.00,VWS V14.01,2013-07-28 09:22:00,
2013-07-28 05:27:00,76.3,72.8,29.92,North,355,0.0,0.0,89,0.00,,CLR,0.00,0.00,VWS V14.01,2013-07-28 09:27:00,
2013-07-28 05:32:00,76.4,72.9,29.93,North,355,0.0,0.0,89,0.00,,CLR,0.00,0.00,VWS V14.01,2013-07-28 09:32:00,
2013-07-28 05:37:00,76.4,72.9,29.93,North,355,0.0,1.0,89,0.00,,CLR,0.00,0.00,VWS V14.01,2013-07-28 09:37:00,
2013-07-28 05:42:00,76.5,73.0,29.93,North,355,0.0,0.0,89,0.00,,CLR,0.00,0.00,VWS V14.01,2013-07-28 09:42:00,
2013-07-28 05:47:00,76.6,73.1,29.93,North,355,0.0,1.0,89,0.00,,CLR,0.00,0.00,VWS V14.01,2013-07-28 09:47:00,
2013-07-28 05:52:00,76.7,73.2,29.93,North,355,0.0,0.0,89,0.00,,CLR,0.00,0.00,VWS V14.01,2013-07-28 09:52:00,
2013-07-28 05:57:00,76.7,73.2,29.93,North,355,0.0,0.0,89,0.00,,CLR,0.00,0.00,VWS V14.01,2013-07-28 09:57:00,
2013-07-28 06:02:00,76.7,73.2,29.93,North,355,0.0,0.0,89,0.00,,CLR,0.00,0.00,VWS V14.01,2013-07-28 10:02:00,
2013-07-28 06:07:00,76.8,73.7,29.93,North,355,0.0,0.0,90,0.00,,CLR,0.00,0.00,VWS V14.01,2013-07-28 10:07:00,
2013-07-28 06:12:00,76.8,73.7,29.94,North,355,0.0,0.0,90,0.00,,CLR,0.00,0.00,VWS V14.01,2013-07-28 10:12:00,
2013-07-28 06:17:00,76.7,73.6,29.94,North,355,0.0,0.0,90,0.00,,CLR,0.00,0.00,VWS V14.01,2013-07-28 10:17:00,
2013-07-28 06:22:00,76.7,73.6,29.94,North,355,0.0,0.0,90,0.00,,CLR,0.00,0.00,VWS V14.01,2013-07-28 10:22:00,
2013-07-28 06:27:00,76.6,73.4,29.94,North,355,0.0,0.0,90,0.00,,CLR,0.00,0.00,VWS V14.01,2013-07-28 10:27:00,
2013-07-28 06:32:00,76.7,73.6,29.95,North,355,0.0,1.0,90,0.00,,CLR,0.00,0.00,VWS V14.01,2013-07-28 10:32:00,
2013-07-28 06:37:00,76.7,73.6,29.95,North,355,1.0,1.0,90,0.00,,CLR,0.00,0.00,VWS V14.01,2013-07-28 10:37:00,
2013-07-28 06:42:00,76.7,73.6,29.95,North,355,0.0,1.0,90,0.00,,CLR,0.00,0.00,VWS V14.01,2013-07-28 10:42:00,
2013-07-28 06:47:00,76.8,73.7,29.95,North,355,0.0,1.0,90,0.00,,CLR,0.00,0.00,VWS V14.01,2013-07-28 10:47:00,
2013-07-28 06:52:00,76.9,74.1,29.95,North,355,0.0,0.0,91,0.00,,CLR,0.00,0.00,VWS V14.01,2013-07-28 10:52:00,
2013-07-28 06:57:00,77.0,74.2,29.96,North,355,1.0,3.0,91,0.00,,CLR,0.00,0.00,VWS V14.01,2013-07-28 10:57:00,
2013-07-28 07:02:00,77.0,74.2,29.96,North,355,0.0,0.0,91,0.00,,BKN085,0.00,5.00,VWS V14.01,2013-07-28 11:02:00,
2013-07-28 07:07:00,77.1,74.3,29.96,North,355,0.0,0.0,91,0.00,,BKN085,0.00,11.00,VWS V14.01,2013-07-28 11:07:00,
2013-07-28 07:12:00,77.2,74.4,29.96,North,355,0.0,1.0,91,0.00,,BKN085,0.00,16.00,VWS V14.01,2013-07-28 11:12:00,
2013-07-28 07:17:00,77.3,74.5,29.96,North,355,1.0,4.0,91,0.00,,BKN085,0.00,21.00,VWS V14.01,2013-07-28 11:17:00,
2013-07-28 07:22:00,77.3,74.8,29.96,North,355,0.0,4.0,92,0.00,,BKN085,0.00,30.00,VWS V14.01,2013-07-28 11:22:00,
2013-07-28 07:27:00,77.4,74.9,29.97,North,355,2.0,3.0,92,0.00,,BKN085,0.00,42.00,VWS V14.01,2013-07-28 11:27:00,
2013-07-28 07:32:00,77.5,75.0,29.96,North,355,1.0,2.0,92,0.00,,BKN085,0.00,60.00,VWS V14.01,2013-07-28 11:32:00,
2013-07-28 07:37:00,77.6,75.1,29.96,North,355,1.0,3.0,92,0.00,,BKN085,0.00,77.00,VWS V14.01,2013-07-28 11:37:00,
2013-07-28 07:42:00,77.7,75.2,29.97,North,355,0.0,2.0,92,0.00,,BKN085,0.00,104.00,VWS V14.01,2013-07-28 11:42:00,
2013-07-28 07:47:00,77.8,75.3,29.97,North,355,0.0,1.0,92,0.00,,BKN085,0.00,162.00,VWS V14.01,2013-07-28 11:47:00,
2013-07-28 07:52:00,78.0,75.5,29.97,North,355,0.0,2.0,92,0.00,,BKN085,0.00,142.00,VWS V14.01,2013-07-28 11:52:00,
2013-07-28 07:57:00,78.2,75.7,29.97,North,350,2.0,2.0,92,0.00,,BKN085,0.00,149.00,VWS V14.01,2013-07-28 11:57:00,
2013-07-28 08:02:00,78.4,75.9,29.97,ENE,67,2.0,3.0,92,0.00,,OVC070,0.00,155.00,VWS V14.01,2013-07-28 12:02:00,
2013-07-28 08:07:00,78.5,76.0,29.97,SE,132,1.0,3.0,92,0.00,,OVC070,0.00,174.00,VWS V14.01,2013-07-28 12:07:00,
2013-07-28 08:12:00,78.8,76.3,29.98,SE,132,1.0,1.0,92,0.00,,OVC070,0.00,239.00,VWS V14.01,2013-07-28 12:12:00,
2013-07-28 08:17:00,79.1,76.6,29.97,SE,136,0.0,0.0,92,0.00,,OVC070,0.00,153.00,VWS V14.01,2013-07-28 12:17:00,
2013-07-28 08:22:00,79.4,76.6,29.97,SE,136,2.0,3.0,91,0.00,,OVC070,0.00,200.00,VWS V14.01,2013-07-28 12:22:00,
2013-07-28 08:27:00,79.8,76.9,29.97,SE,138,1.0,4.0,91,0.00,,OVC070,0.00,258.00,VWS V14.01,2013-07-28 12:27:00,
2013-07-28 08:32:00,80.3,77.4,29.97,SSE,155,0.0,2.0,91,0.00,,OVC070,0.00,288.00,VWS V14.01,2013-07-28 12:32:00,
2013-07-28 08:37:00,80.9,77.7,29.97,SSE,153,0.0,1.0,90,0.00,,OVC070,0.00,348.00,VWS V14.01,2013-07-28 12:37:00,
2013-07-28 08:42:00,81.6,78.4,29.97,SSE,159,1.0,3.0,90,0.00,,OVC070,0.00,371.00,VWS V14.01,2013-07-28 12:42:00,
2013-07-28 08:47:00,82.1,78.5,29.98,SSE,159,0.0,1.0,89,0.00,,OVC070,0.00,213.00,VWS V14.01,2013-07-28 12:47:00,
2013-07-28 08:52:00,82.6,78.3,29.98,SSE,159,0.0,0.0,87,0.00,,OVC070,0.00,211.00,VWS V14.01,2013-07-28 12:52:00,
2013-07-28 08:57:00,83.0,78.4,29.98,SSE,161,2.0,2.0,86,0.00,,OVC070,0.00,281.00,VWS V14.01,2013-07-28 12:57:00,
2013-07-28 09:02:00,83.6,78.6,29.98,SSE,167,0.0,2.0,85,0.00,,OVC070,0.00,325.00,VWS V14.01,2013-07-28 13:02:00,
2013-07-28 09:07:00,84.2,78.8,29.98,SSE,167,0.0,0.0,84,0.00,,OVC070,0.00,399.00,VWS V14.01,2013-07-28 13:07:00,
2013-07-28 09:12:00,84.9,78.8,29.98,SSE,167,1.0,3.0,82,0.00,,OVC070,0.00,418.00,VWS V14.01,2013-07-28 13:12:00,
2013-07-28 09:17:00,85.4,78.5,29.98,SSE,167,1.0,3.0,80,0.00,,OVC070,0.00,427.00,VWS V14.01,2013-07-28 13:17:00,
2013-07-28 09:22:00,86.0,78.7,29.98,South,169,3.0,4.0,79,0.00,,OVC070,0.00,461.00,VWS V14.01,2013-07-28 13:22:00,
2013-07-28 09:27:00,86.5,78.4,29.98,South,170,0.0,4.0,77,0.00,,OVC070,0.00,487.00,VWS V14.01,2013-07-28 13:27:00,
2013-07-28 09:32:00,86.8,78.3,29.98,South,171,0.0,5.0,76,0.00,,OVC070,0.00,171.00,VWS V14.01,2013-07-28 13:32:00,
2013-07-28 09:37:00,87.1,78.2,29.98,South,171,0.0,1.0,75,0.00,,OVC070,0.00,540.00,VWS V14.01,2013-07-28 13:37:00,
2013-07-28 09:42:00,87.4,78.1,29.99,SSW,194,2.0,4.0,74,0.00,,OVC070,0.00,202.00,VWS V14.01,2013-07-28 13:42:00,
2013-07-28 09:47:00,87.5,78.2,29.99,SSW,193,0.0,3.0,74,0.00,,OVC070,0.00,169.00,VWS V14.01,2013-07-28 13:47:00,
2013-07-28 09:52:00,87.5,77.8,29.99,SSW,193,0.0,2.0,73,0.00,,OVC070,0.00,206.00,VWS V14.01,2013-07-28 13:52:00,
2013-07-28 09:57:00,87.5,77.8,29.99,SSW,197,0.0,1.0,73,0.00,,OVC070,0.00,285.00,VWS V14.01,2013-07-28 13:57:00,
2013-07-28 10:02:00,87.6,77.9,29.99,South,186,2.0,4.0,73,0.00,,OVC070,0.00,371.00,VWS V14.01,2013-07-28 14:02:00,
2013-07-28 10:07:00,87.3,77.2,29.99,SE,146,2.0,5.0,72,0.00,,OVC070,0.00,376.00,VWS V14.01,2013-07-28 14:07:00,
2013-07-28 10:12:00,87.2,77.5,29.99,SE,144,1.0,4.0,73,0.00,,OVC070,0.00,408.00,VWS V14.01,2013-07-28 14:12:00,
2013-07-28 10:17:00,87.4,77.7,29.99,SE,146,1.0,4.0,73,0.00,,OVC070,0.00,694.00,VWS V14.01,2013-07-28 14:17:00,
2013-07-28 10:22:00,87.8,77.7,29.99,SSE,162,2.0,3.0,72,0.00,,OVC070,0.00,403.00,VWS V14.01,2013-07-28 14:22:00,
2013-07-28 10:27:00,88.3,77.7,29.99,SSE,162,2.0,4.0,71,0.00,,OVC070,0.00,826.00,VWS V14.01,2013-07-28 14:27:00,
2013-07-28 10:32:00,88.4,77.4,30.00,SSE,162,1.0,2.0,70,0.00,,OVC070,0.00,403.00,VWS V14.01,2013-07-28 14:32:00,
2013-07-28 10:37:00,88.8,77.8,30.00,SSW,207,2.0,6.0,70,0.00,,OVC070,0.00,462.00,VWS V14.01,2013-07-28 14:37:00,
2013-07-28 10:42:00,89.4,78.3,30.00,SSW,196,1.0,3.0,70,0.00,,OVC070,0.00,578.00,VWS V14.01,2013-07-28 14:42:00,
2013-07-28 10:47:00,90.0,78.5,30.00,SSW,202,0.0,2.0,69,0.00,,OVC070,0.00,991.00,VWS V14.01,2013-07-28 14:47:00,
2013-07-28 10:52:00,89.0,76.6,30.00,NW,319,4.0,7.0,67,0.00,,OVC070,0.00,214.00,VWS V14.01,2013-07-28 14:52:00,
2013-07-28 10:57:00,86.5,75.6,30.00,NW,323,4.0,11.0,70,0.00,,OVC070,0.00,185.00,VWS V14.01,2013-07-28 14:57:00,
2013-07-28 11:02:00,84.8,75.2,30.01,WSW,238,1.0,13.0,73,0.00,,OVC070,0.00,65.00,VWS V14.01,2013-07-28 15:02:00,
2013-07-28 11:07:00,83.5,74.8,30.02,NNE,27,0.0,1.0,75,0.11,,OVC090,0.11,104.00,VWS V14.01,2013-07-28 15:07:00,
2013-07-28 11:12:00,81.9,73.6,30.02,NW,308,9.0,12.0,76,0.14,,OVC090,0.14,114.00,VWS V14.01,2013-07-28 15:12:00,
2013-07-28 11:17:00,79.2,72.1,30.02,West,276,5.0,16.0,79,0.15,,OVC090,0.15,102.00,VWS V14.01,2013-07-28 15:17:00,
2013-07-28 11:22:00,77.6,71.7,30.02,NW,317,6.0,11.0,82,0.15,,OVC090,0.15,69.00,VWS V14.01,2013-07-28 15:22:00,
2013-07-28 11:27:00,76.7,71.2,30.02,NW,323,9.0,13.0,83,0.16,,OVC090,0.16,47.00,VWS V14.01,2013-07-28 15:27:00,
2013-07-28 11:32:00,76.1,70.9,30.01,NW,321,6.0,11.0,84,0.16,,OVC090,0.16,37.00,VWS V14.01,2013-07-28 15:32:00,
2013-07-28 11:37:00,76.0,71.2,30.01,NNW,327,3.0,6.0,85,0.16,,OVC090,0.16,47.00,VWS V14.01,2013-07-28 15:37:00,
2013-07-28 11:43:00,76.0,71.5,30.02,NNE,14,8.0,8.0,86,0.16,,OVC090,0.16,53.00,VWS V14.01,2013-07-28 15:43:00,
2013-07-28 11:48:00,76.2,72.4,30.03,North,9,9.0,10.0,88,0.16,,OVC090,0.16,33.00,VWS V14.01,2013-07-28 15:48:00,
2013-07-28 11:53:00,76.0,72.5,30.02,North,5,8.0,14.0,89,0.16,,OVC090,0.16,49.00,VWS V14.01,2013-07-28 15:53:00,
2013-07-28 11:58:00,75.8,72.7,30.02,North,355,6.0,9.0,90,0.16,,BKN060,0.16,40.00,VWS V14.01,2013-07-28 15:58:00,
2013-07-28 12:03:00,75.6,72.5,30.02,NNE,13,6.0,10.0,90,0.16,,BKN060,0.16,44.00,VWS V14.01,2013-07-28 16:03:00,
2013-07-28 12:08:00,75.7,72.6,30.02,NNE,15,3.0,5.0,90,0.08,,BKN060,0.16,58.00,VWS V14.01,2013-07-28 16:08:00,
2013-07-28 12:13:00,75.6,72.5,30.02,ENE,66,2.0,5.0,90,0.04,,BKN060,0.16,46.00,VWS V14.01,2013-07-28 16:13:00,
2013-07-28 12:18:00,75.5,72.4,30.02,NE,54,0.0,2.0,90,0.02,,BKN060,0.16,56.00,VWS V14.01,2013-07-28 16:18:00,
2013-07-28 12:23:00,75.5,72.7,30.02,NE,54,0.0,1.0,91,0.01,,BKN060,0.16,62.00,VWS V14.01,2013-07-28 16:23:00,
2013-07-28 12:28:00,75.6,72.8,30.02,NE,54,2.0,3.0,91,0.01,,BKN060,0.16,67.00,VWS V14.01,2013-07-28 16:28:00,
2013-07-28 12:33:00,75.7,72.9,30.02,NE,56,3.0,3.0,91,0.00,,BKN060,0.16,70.00,VWS V14.01,2013-07-28 16:33:00,
2013-07-28 12:38:00,75.9,73.1,30.02,NE,56,2.0,3.0,91,0.00,,BKN060,0.16,81.00,VWS V14.01,2013-07-28 16:38:00,
2013-07-28 12:43:00,76.1,73.3,30.02,NE,56,2.0,4.0,91,0.00,,BKN060,0.16,91.00,VWS V14.01,2013-07-28 16:43:00,
2013-07-28 12:48:00,76.3,73.5,30.02,NE,56,1.0,4.0,91,0.00,,BKN060,0.16,104.00,VWS V14.01,2013-07-28 16:48:00,
2013-07-28 12:52:00,76.3,73.5,30.01,NE,56,0.0,2.0,91,0.00,,BKN060,0.16,114.00,VWS V14.01,2013-07-28 16:52:00,
2013-07-28 12:57:00,76.5,73.7,30.00,NE,56,0.0,0.0,91,0.00,,BKN060,0.16,123.00,VWS V14.01,2013-07-28 16:57:00,
2013-07-28 13:02:00,76.7,73.6,30.00,NE,56,0.0,2.0,90,0.00,,BKN060,0.16,134.00,VWS V14.01,2013-07-28 17:02:00,
2013-07-28 13:07:00,76.9,73.8,30.00,NE,56,0.0,1.0,90,0.00,,BKN120,0.16,144.00,VWS V14.01,2013-07-28 17:07:00,
2013-07-28 13:12:00,77.1,73.9,30.00,NE,56,0.0,0.0,90,0.00,,BKN120,0.16,153.00,VWS V14.01,2013-07-28 17:12:00,
2013-07-28 13:17:00,77.3,74.1,30.00,NE,56,1.0,2.0,90,0.00,,BKN120,0.16,163.00,VWS V14.01,2013-07-28 17:17:00,
2013-07-28 13:22:00,77.5,74.3,30.01,NE,56,2.0,3.0,90,0.00,,BKN120,0.16,179.00,VWS V14.01,2013-07-28 17:22:00,
2013-07-28 13:27:00,77.8,74.6,30.01,ENE,57,2.0,3.0,90,0.00,,BKN120,0.16,195.00,VWS V14.01,2013-07-28 17:27:00,
2013-07-28 13:33:00,78.0,74.8,30.02,NE,56,2.0,2.0,90,0.00,,BKN120,0.16,211.00,VWS V14.01,2013-07-28 17:33:00,
2013-07-28 13:37:00,78.4,74.9,30.02,NE,56,2.0,2.0,89,0.00,,BKN120,0.16,232.00,VWS V14.01,2013-07-28 17:37:00,
2013-07-28 13:42:00,78.5,75.0,30.02,NE,56,1.0,2.0,89,0.00,,BKN120,0.16,255.00,VWS V14.01,2013-07-28 17:42:00,
2013-07-28 13:47:00,78.8,74.9,30.02,NE,56,3.0,4.0,88,0.00,,BKN120,0.16,260.00,VWS V14.01,2013-07-28 17:47:00,
2013-07-28 13:52:00,79.4,75.5,30.01,NNW,346,4.0,5.0,88,0.00,,BKN120,0.16,287.00,VWS V14.01,2013-07-28 17:52:00,
2013-07-28 13:57:00,79.7,75.8,30.01,NNW,348,4.0,5.0,88,0.00,,BKN120,0.16,288.00,VWS V14.01,2013-07-28 17:57:00,
2013-07-28 14:02:00,79.7,75.8,30.00,North,9,3.0,5.0,88,0.00,,BKN120,0.16,316.00,VWS V14.01,2013-07-28 18:02:00,
2013-07-28 14:07:00,79.4,75.2,30.01,North,10,1.0,4.0,87,0.00,,BKN095,0.16,323.00,VWS V14.01,2013-07-28 18:07:00,
2013-07-28 14:12:00,79.5,75.3,30.01,North,10,0.0,2.0,87,0.00,,BKN095,0.16,327.00,VWS V14.01,2013-07-28 18:12:00,
2013-07-28 14:17:00,79.8,75.6,30.01,North,10,4.0,4.0,87,0.00,,BKN095,0.16,334.00,VWS V14.01,2013-07-28 18:17:00,
2013-07-28 14:22:00,79.8,75.6,30.00,North,10,2.0,4.0,87,0.00,,BKN095,0.16,346.00,VWS V14.01,2013-07-28 18:22:00,
2013-07-28 14:27:00,79.8,75.2,30.00,North,11,3.0,3.0,86,0.00,,BKN095,0.16,353.00,VWS V14.01,2013-07-28 18:27:00,
2013-07-28 14:32:00,80.2,75.6,30.00,North,11,1.0,5.0,86,0.00,,BKN095,0.16,359.00,VWS V14.01,2013-07-28 18:32:00,
2013-07-28 14:37:00,80.4,75.5,30.00,North,11,1.0,3.0,85,0.00,,BKN095,0.16,364.00,VWS V14.01,2013-07-28 18:37:00,
2013-07-28 14:42:00,80.6,75.3,30.00,North,11,1.0,3.0,84,0.00,,BKN095,0.16,376.00,VWS V14.01,2013-07-28 18:42:00,
2013-07-28 14:47:00,80.9,75.3,30.00,NNE,16,2.0,5.0,83,0.00,,BKN095,0.16,385.00,VWS V14.01,2013-07-28 18:47:00,
2013-07-28 14:52:00,81.5,75.5,29.99,NNE,16,0.0,3.0,82,0.00,,BKN095,0.16,390.00,VWS V14.01,2013-07-28 18:52:00,
2013-07-28 14:57:00,81.7,75.3,29.99,NNE,17,1.0,2.0,81,0.00,,BKN095,0.16,422.00,VWS V14.01,2013-07-28 18:57:00,
2013-07-28 15:02:00,82.2,75.4,29.99,NNE,17,0.0,2.0,80,0.00,,BKN095,0.16,464.00,VWS V14.01,2013-07-28 19:02:00,
2013-07-28 15:08:00,82.6,75.4,29.99,NNE,17,0.0,1.0,79,0.00,,BKN095,0.16,490.00,VWS V14.01,2013-07-28 19:08:00,
2013-07-28 15:13:00,83.2,76.0,29.99,NNE,17,0.0,2.0,79,0.00,,BKN095,0.16,497.00,VWS V14.01,2013-07-28 19:13:00,
2013-07-28 15:18:00,83.7,76.1,29.98,NNE,17,1.0,2.0,78,0.00,,BKN095,0.16,454.00,VWS V14.01,2013-07-28 19:18:00,
2013-07-28 15:23:00,84.0,76.0,29.98,ESE,106,0.0,4.0,77,0.00,,BKN095,0.16,420.00,VWS V14.01,2013-07-28 19:23:00,
2013-07-28 15:28:00,84.3,76.3,29.98,ENE,78,1.0,4.0,77,0.00,,BKN095,0.16,378.00,VWS V14.01,2013-07-28 19:28:00,
2013-07-28 15:33:00,84.6,76.6,29.98,ENE,77,3.0,3.0,77,0.00,,BKN095,0.16,341.00,VWS V14.01,2013-07-28 19:33:00,
2013-07-28 15:38:00,84.8,77.2,29.98,East,80,0.0,3.0,78,0.00,,BKN095,0.16,299.00,VWS V14.01,2013-07-28 19:38:00,
2013-07-28 15:43:00,84.9,76.9,29.98,ESE,103,1.0,4.0,77,0.00,,BKN095,0.16,281.00,VWS V14.01,2013-07-28 19:43:00,
2013-07-28 15:48:00,84.9,76.9,29.98,ESE,104,1.0,4.0,77,0.00,,BKN095,0.16,271.00,VWS V14.01,2013-07-28 19:48:00,
2013-07-28 15:53:00,84.9,76.9,29.98,ESE,102,2.0,3.0,77,0.00,,BKN095,0.16,264.00,VWS V14.01,2013-07-28 19:53:00,
2013-07-28 15:58:00,84.9,77.3,29.98,East,86,1.0,3.0,78,0.00,,BKN095,0.16,262.00,VWS V14.01,2013-07-28 19:58:00,
2013-07-28 16:03:00,84.7,76.7,29.98,ENE,75,1.0,4.0,77,0.00,,BKN095,0.16,258.00,VWS V14.01,2013-07-28 20:03:00,
2013-07-28 16:07:00,84.7,77.1,29.98,ENE,70,2.0,5.0,78,0.00,,BKN095,0.16,264.00,VWS V14.01,2013-07-28 20:07:00,
2013-07-28 16:12:00,84.6,77.0,29.98,ENE,76,1.0,4.0,78,0.00,,BKN095,0.16,294.00,VWS V14.01,2013-07-28 20:12:00,
2013-07-28 16:17:00,84.7,77.5,29.98,ENE,77,1.0,1.0,79,0.00,,BKN095,0.16,281.00,VWS V14.01,2013-07-28 20:17:00,
2013-07-28 16:22:00,84.7,77.1,29.98,SE,142,5.0,9.0,78,0.00,,BKN095,0.16,288.00,VWS V14.01,2013-07-28 20:22:00,
2013-07-28 16:27:00,84.7,77.1,29.98,ESE,104,0.0,4.0,78,0.00,,BKN095,0.16,320.00,VWS V14.01,2013-07-28 20:27:00,
2013-07-28 16:32:00,84.8,77.2,29.98,East,99,2.0,8.0,78,0.00,,BKN095,0.16,341.00,VWS V14.01,2013-07-28 20:32:00,
2013-07-28 16:37:00,84.9,77.3,29.98,ENE,63,4.0,6.0,78,0.00,,BKN095,0.16,338.00,VWS V14.01,2013-07-28 20:37:00,
2013-07-28 16:42:00,85.0,77.4,29.98,East,89,2.0,4.0,78,0.00,,BKN095,0.16,311.00,VWS V14.01,2013-07-28 20:42:00,
2013-07-28 16:47:00,85.1,77.5,29.98,ESE,107,4.0,4.0,78,0.00,,BKN095,0.16,316.00,VWS V14.01,2013-07-28 20:47:00,
2013-07-28 16:52:00,85.3,77.3,29.98,East,97,2.0,3.0,77,0.00,,BKN095,0.16,325.00,VWS V14.01,2013-07-28 20:52:00,
2013-07-28 16:57:00,85.2,77.2,29.98,ESE,102,4.0,8.0,77,0.00,,BKN150,0.16,299.00,VWS V14.01,2013-07-28 20:57:00,
2013-07-28 17:02:00,85.1,77.1,29.98,East,96,2.0,5.0,77,0.00,,BKN150,0.16,262.00,VWS V14.01,2013-07-28 21:02:00,
2013-07-28 17:07:00,85.0,77.4,29.97,East,92,1.0,5.0,78,0.00,,BKN150,0.16,262.00,VWS V14.01,2013-07-28 21:07:00,
2013-07-28 17:12:00,85.0,77.4,29.97,SE,132,1.0,6.0,78,0.00,,BKN150,0.16,288.00,VWS V14.01,2013-07-28 21:12:00,
2013-07-28 17:18:00,85.0,77.4,29.97,ESE,103,5.0,10.0,78,0.00,,BKN150,0.16,283.00,VWS V14.01,2013-07-28 21:18:00,
2013-07-28 17:23:00,84.9,77.3,29.97,ESE,114,2.0,6.0,78,0.00,,BKN150,0.16,294.00,VWS V14.01,2013-07-28 21:23:00,
2013-07-28 17:28:00,84.9,77.7,29.98,ENE,71,5.0,5.0,79,0.00,,BKN150,0.16,329.00,VWS V14.01,2013-07-28 21:28:00,
2013-07-28 17:33:00,85.1,77.9,29.97,ESE,103,5.0,5.0,79,0.00,,BKN150,0.16,316.00,VWS V14.01,2013-07-28 21:33:00,
2013-07-28 17:38:00,85.1,77.9,29.97,ENE,74,2.0,6.0,79,0.00,,BKN150,0.16,403.00,VWS V14.01,2013-07-28 21:38:00,
2013-07-28 17:43:00,85.1,77.9,29.97,East,84,4.0,4.0,79,0.00,,BKN150,0.16,422.00,VWS V14.01,2013-07-28 21:43:00,
2013-07-28 17:48:00,85.4,78.2,29.97,ESE,116,4.0,4.0,79,0.00,,BKN150,0.16,371.00,VWS V14.01,2013-07-28 21:48:00,
2013-07-28 17:53:00,85.4,77.0,29.97,East,94,6.0,9.0,76,0.00,,BKN150,0.16,281.00,VWS V14.01,2013-07-28 21:53:00,
2013-07-28 17:58:00,85.5,76.7,29.97,ENE,62,2.0,5.0,75,0.00,,BKN150,0.16,195.00,VWS V14.01,2013-07-28 21:58:00,
2013-07-28 18:03:00,85.5,76.7,29.97,ESE,112,2.0,7.0,75,0.00,,BKN150,0.16,174.00,VWS V14.01,2013-07-28 22:03:00,
2013-07-28 18:08:00,85.3,76.1,29.97,SSE,149,6.0,12.0,74,0.00,,BKN150,0.16,169.00,VWS V14.01,2013-07-28 22:08:00,
2013-07-28 18:13:00,85.3,76.1,29.97,SSE,153,4.0,11.0,74,0.00,,BKN150,0.16,160.00,VWS V14.01,2013-07-28 22:13:00,
2013-07-28 18:17:00,85.4,76.2,29.97,SE,143,5.0,10.0,74,0.00,,BKN150,0.16,151.00,VWS V14.01,2013-07-28 22:17:00,
2013-07-28 18:22:00,85.6,76.8,29.97,ESE,115,2.0,5.0,75,0.00,,BKN150,0.16,139.00,VWS V14.01,2013-07-28 22:22:00,
2013-07-28 18:27:00,85.5,76.3,29.97,SSE,166,4.0,8.0,74,0.00,,BKN150,0.16,135.00,VWS V14.01,2013-07-28 22:27:00,
2013-07-28 18:28:00,85.5,76.3,29.97,SSE,151,4.0,8.0,74,0.00,,BKN150,0.16,135.00,VWS V14.01,2013-07-28 22:28:00,
2013-07-28 18:33:00,85.5,76.3,29.98,SE,132,2.0,9.0,74,0.00,,BKN150,0.16,128.00,VWS V14.01,2013-07-28 22:33:00,
2013-07-28 18:38:00,85.4,76.2,29.98,SE,144,3.0,7.0,74,0.00,,BKN150,0.16,139.00,VWS V14.01,2013-07-28 22:38:00,
2013-07-28 18:43:00,85.4,76.2,29.98,SE,135,7.0,9.0,74,0.00,,BKN150,0.16,120.00,VWS V14.01,2013-07-28 22:43:00,
2013-07-28 18:48:00,85.3,76.1,29.98,ESE,117,3.0,7.0,74,0.00,,BKN150,0.16,83.00,VWS V14.01,2013-07-28 22:48:00,
2013-07-28 18:53:00,85.2,76.4,29.98,ESE,111,2.0,5.0,75,0.00,,BKN150,0.16,76.00,VWS V14.01,2013-07-28 22:53:00,
2013-07-28 18:58:00,85.1,76.3,29.98,SE,137,1.0,4.0,75,0.00,,BKN150,0.16,67.00,VWS V14.01,2013-07-28 22:58:00,
2013-07-28 19:03:00,85.0,76.2,29.98,ESE,105,2.0,4.0,75,0.00,,BKN150,0.16,56.00,VWS V14.01,2013-07-28 23:03:00,
2013-07-28 19:08:00,84.9,76.5,29.98,SE,126,3.0,6.0,76,0.00,,BKN150,0.16,49.00,VWS V14.01,2013-07-28 23:08:00,
2013-07-28 19:13:00,84.8,76.4,29.98,ESE,108,4.0,4.0,76,0.00,,BKN150,0.16,42.00,VWS V14.01,2013-07-28 23:13:00,
2013-07-28 19:18:00,84.8,76.4,29.98,SE,127,0.0,3.0,76,0.00,,BKN150,0.16,33.00,VWS V14.01,2013-07-28 23:18:00,
2013-07-28 19:23:00,84.7,76.3,29.98,SE,126,4.0,5.0,76,0.00,,BKN150,0.16,25.00,VWS V14.01,2013-07-28 23:23:00,
2013-07-28 19:28:00,84.6,76.6,29.98,SE,126,1.0,4.0,77,0.00,,BKN150,0.16,19.00,VWS V14.01,2013-07-28 23:28:00,
2013-07-28 19:33:00,84.5,76.5,29.99,SE,126,2.0,3.0,77,0.00,,BKN150,0.16,14.00,VWS V14.01,2013-07-28 23:33:00,
2013-07-28 19:38:00,84.4,76.4,29.99,SE,126,3.0,4.0,77,0.00,,BKN150,0.16,12.00,VWS V14.01,2013-07-28 23:38:00,
2013-07-28 19:43:00,84.3,76.3,29.99,SE,126,0.0,1.0,77,0.00,,BKN150,0.16,11.00,VWS V14.01,2013-07-28 23:43:00,
2013-07-28 19:48:00,84.2,76.2,30.00,SE,125,0.0,1.0,77,0.00,,BKN150,0.16,11.00,VWS V14.01,2013-07-28 23:48:00,
2013-07-28 19:53:00,84.2,76.6,30.00,SE,126,0.0,2.0,78,0.00,,BKN150,0.16,9.00,VWS V14.01,2013-07-28 23:53:00,
2013-07-28 19:58:00,84.1,76.5,30.00,SE,125,0.0,3.0,78,0.00,,BKN150,0.16,7.00,VWS V14.01,2013-07-28 23:58:00,
2013-07-28 20:03:00,84.0,76.4,30.00,SE,126,1.0,2.0,78,0.00,,BKN150,0.16,0.00,VWS V14.01,2013-07-29 00:03:00,
2013-07-28 20:08:00,83.8,76.2,30.01,SE,126,0.0,1.0,78,0.00,,BKN150,0.16,0.00,VWS V14.01,2013-07-29 00:08:00,
2013-07-28 20:13:00,83.7,76.5,30.01,SE,126,1.0,1.0,79,0.00,,BKN150,0.16,0.00,VWS V14.01,2013-07-29 00:13:00,
2013-07-28 20:18:00,83.6,76.4,30.01,SE,125,0.0,0.0,79,0.00,,BKN150,0.16,0.00,VWS V14.01,2013-07-29 00:18:00,
2013-07-28 20:23:00,83.5,76.3,30.01,SE,125,0.0,0.0,79,0.00,,BKN150,0.16,0.00,VWS V14.01,2013-07-29 00:23:00,
2013-07-28 20:28:00,83.4,76.2,30.02,SE,126,0.0,0.0,79,0.00,,BKN150,0.16,0.00,VWS V14.01,2013-07-29 00:28:00,
2013-07-28 20:33:00,83.3,76.1,30.02,SE,126,0.0,0.0,79,0.00,,BKN150,0.16,0.00,VWS V14.01,2013-07-29 00:33:00,
2013-07-28 20:38:00,83.2,76.4,30.02,SE,126,0.0,1.0,80,0.00,,BKN150,0.16,0.00,VWS V14.01,2013-07-29 00:38:00,
2013-07-28 20:43:00,83.2,76.4,30.02,SE,126,0.0,0.0,80,0.00,,BKN150,0.16,0.00,VWS V14.01,2013-07-29 00:43:00,
2013-07-28 20:48:00,83.1,76.3,30.03,SE,125,0.0,0.0,80,0.00,,BKN150,0.16,0.00,VWS V14.01,2013-07-29 00:48:00,
2013-07-28 20:53:00,83.0,76.2,30.03,SE,126,0.0,0.0,80,0.00,,BKN150,0.16,0.00,VWS V14.01,2013-07-29 00:53:00,
2013-07-28 20:58:00,82.9,76.5,30.03,SE,126,0.0,0.0,81,0.00,,BKN090,0.16,0.00,VWS V14.01,2013-07-29 00:58:00,
2013-07-28 21:03:00,82.9,76.5,30.03,SE,126,0.0,0.0,81,0.00,,BKN090,0.16,0.00,VWS V14.01,2013-07-29 01:03:00,
2013-07-28 21:08:00,82.8,76.4,30.03,SE,125,0.0,0.0,81,0.00,,BKN090,0.16,0.00,VWS V14.01,2013-07-29 01:08:00,
2013-07-28 21:13:00,82.7,76.3,30.03,SE,126,0.0,0.0,81,0.00,,BKN090,0.16,0.00,VWS V14.01,2013-07-29 01:13:00,
2013-07-28 21:18:00,82.6,76.6,30.03,SE,126,0.0,0.0,82,0.00,,BKN090,0.16,0.00,VWS V14.01,2013-07-29 01:18:00,
2013-07-28 21:23:00,82.4,76.4,30.03,SE,126,0.0,0.0,82,0.00,,BKN090,0.16,0.00,VWS V14.01,2013-07-29 01:23:00,
2013-07-28 21:28:00,82.3,76.6,30.03,SE,126,0.0,0.0,83,0.00,,BKN090,0.16,0.00,VWS V14.01,2013-07-29 01:28:00,
2013-07-28 21:34:00,82.3,76.6,30.03,SE,126,0.0,0.0,83,0.00,,BKN090,0.16,0.00,VWS V14.01,2013-07-29 01:34:00,
2013-07-28 21:39:00,82.1,76.4,30.03,SE,126,0.0,0.0,83,0.00,,BKN090,0.16,0.00,VWS V14.01,2013-07-29 01:39:00,
2013-07-28 21:44:00,82.0,76.3,30.03,SE,126,0.0,0.0,83,0.00,,BKN090,0.16,0.00,VWS V14.01,2013-07-29 01:44:00,
2013-07-28 21:50:00,81.9,76.2,30.03,SE,125,0.0,0.0,83,0.00,,BKN090,0.16,0.00,VWS V14.01,2013-07-29 01:50:00,
2013-07-28 21:55:00,81.9,76.6,30.04,SE,126,0.0,0.0,84,0.00,,BKN090,0.16,0.00,VWS V14.01,2013-07-29 01:55:00,
2013-07-28 22:00:00,81.7,76.4,30.04,SE,125,0.0,0.0,84,0.00,,BKN090,0.16,0.00,VWS V14.01,2013-07-29 02:00:00,
2013-07-28 22:05:00,81.6,76.3,30.04,SE,126,0.0,0.0,84,0.00,,SCT095,0.16,0.00,VWS V14.01,2013-07-29 02:05:00,
2013-07-28 22:10:00,81.5,76.2,30.04,SE,126,0.0,0.0,84,0.00,,SCT095,0.16,0.00,VWS V14.01,2013-07-29 02:10:00,
2013-07-28 22:15:00,81.4,76.5,30.04,SE,125,0.0,0.0,85,0.00,,SCT095,0.16,0.00,VWS V14.01,2013-07-29 02:15:00,
2013-07-28 22:20:00,81.3,76.4,30.04,SE,126,0.0,0.0,85,0.00,,SCT095,0.16,0.00,VWS V14.01,2013-07-29 02:20:00,
2013-07-28 22:25:00,81.2,76.3,30.04,SE,125,0.0,0.0,85,0.00,,SCT095,0.16,0.00,VWS V14.01,2013-07-29 02:25:00,
2013-07-28 22:30:00,81.1,76.5,30.04,SE,126,0.0,0.0,86,0.00,,SCT095,0.16,0.00,VWS V14.01,2013-07-29 02:30:00,
2013-07-28 22:35:00,80.9,76.7,30.05,SE,125,0.0,0.0,87,0.00,,SCT095,0.16,0.00,VWS V14.01,2013-07-29 02:35:00,
2013-07-28 22:40:00,80.8,76.6,30.04,SE,126,0.0,0.0,87,0.00,,SCT095,0.16,0.00,VWS V14.01,2013-07-29 02:40:00,
2013-07-28 22:46:00,80.7,76.5,30.04,SE,126,0.0,0.0,87,0.00,,SCT095,0.16,0.00,VWS V14.01,2013-07-29 02:46:00,
2013-07-28 22:51:00,80.6,76.4,30.04,SE,126,0.0,0.0,87,0.00,,SCT095,0.16,0.00,VWS V14.01,2013-07-29 02:51:00,
2013-07-28 22:57:00,80.5,76.3,30.04,SE,126,0.0,1.0,87,0.00,,CLR,0.16,0.00,VWS V14.01,2013-07-29 02:57:00,
2013-07-28 23:02:00,80.5,76.6,30.04,SE,126,0.0,1.0,88,0.00,,CLR,0.16,0.00,VWS V14.01,2013-07-29 03:02:00,
2013-07-28 23:07:00,80.3,76.4,30.03,SE,126,1.0,1.0,88,0.00,,CLR,0.16,0.00,VWS V14.01,2013-07-29 03:07:00,
2013-07-28 23:12:00,80.2,76.3,30.03,SE,125,0.0,1.0,88,0.00,,CLR,0.16,0.00,VWS V14.01,2013-07-29 03:12:00,
2013-07-28 23:17:00,80.0,76.1,30.04,SE,125,3.0,3.0,88,0.00,,CLR,0.16,0.00,VWS V14.01,2013-07-29 03:17:00,
2013-07-28 23:22:00,79.9,76.0,30.03,SE,126,0.0,1.0,88,0.00,,CLR,0.16,0.00,VWS V14.01,2013-07-29 03:22:00,
2013-07-28 23:28:00,79.8,75.9,30.03,SE,125,1.0,1.0,88,0.00,,CLR,0.16,0.00,VWS V14.01,2013-07-29 03:28:00,
2013-07-28 23:33:00,79.8,75.9,30.03,SE,126,0.0,0.0,88,0.00,,CLR,0.16,0.00,VWS V14.01,2013-07-29 03:33:00,
2013-07-28 23:38:00,79.8,75.9,30.03,SE,126,0.0,0.0,88,0.00,,CLR,0.16,0.00,VWS V14.01,2013-07-29 03:38:00,
2013-07-28 23:43:00,79.7,75.8,30.03,SE,125,0.0,0.0,88,0.00,,CLR,0.16,0.00,VWS V14.01,2013-07-29 03:43:00,
2013-07-28 23:49:00,79.6,75.7,30.03,SE,125,2.0,3.0,88,0.00,,CLR,0.16,0.00,VWS V14.01,2013-07-29 03:49:00,
2013-07-28 23:55:00,79.6,75.7,30.03,SE,125,0.0,3.0,88,0.00,,CLR,0.16,0.00,VWS V14.01,2013-07-29 03:55:00,